Weather History for Liberal, KS

Change the Weather History Date:

Wednesday, May 13, 2009

  Actual Average Record
Temperature  
Mean Temperature 70 °F -  
Max Temperature 82 °F 78 °F 98 °F (1974)
Min Temperature 57 °F 49 °F 30 °F (1966)
Cooling Degree Days 4    
Growing Degree Days 20 (Base 50)    
Moisture  
Dew Point 50 °F    
Average Humidity 50    
Maximum Humidity 83    
Minimum Humidity 27    
Precipitation  
Precipitation 0.00 in - - ()
Sea Level Pressure  
Sea Level Pressure 29.71 in    
Wind  
Wind Speed 18 mph (North)    
Max Wind Speed 28 mph    
Max Gust Speed 34 mph    
Visibility 10 miles    
Events      
Averages and records for this station are not official NWS values.
T = Trace of Precipitation, MM = Missing Value Source: NWS Daily Summary

Daily Weather History Graph

Daily Weather History Graph

Search for Another Location

Airport:

Trip Planner

Search our weather history database for the weather conditions in past years. The results will help you decide how hot, cold, wet, or windy it might be!

Date:

Astronomy

May. 13, 2009 Rise Set
Actual Time 6:37 AM CDT 8:43 PM CDT
Civil Twilight 6:08 AM CDT 9:12 PM CDT
Nautical Twilight 5:33 AM CDT 9:48 PM CDT
Astronomical Twilight 4:54 AM CDT 10:26 PM CDT
Moon 12:18 AM CDT (5/13) 9:52 AM CDT (5/13)
Length of Visible Light 15h 04m
Length of Day
14h 06m
Waning Gibbous, 82% of the Moon is Illuminated
May 13
Waning Gibbous
May 17
Last Quarter
May 24
New
May 30
First Quarter
Jun 7
Full

Hourly Weather History & Observations

Time (CDT) Temp. Dew Point Humidity Pressure Visibility Wind Dir Wind Speed Gust Speed Precip Events Conditions
12:15 AM 66.2 °F 60.8 °F 83% 29.60 in 10.0 mi South 16.1 mph - N/A   Clear
12:35 AM 66.2 °F 57.2 °F 73% 29.60 in 10.0 mi SSW 19.6 mph 23.0 mph N/A   Clear
12:55 AM 66.2 °F 53.6 °F 64% 29.60 in 10.0 mi SSW 20.7 mph 26.5 mph N/A   Clear
1:15 AM 66.2 °F 50.0 °F 56% 29.60 in 10.0 mi SSW 18.4 mph - N/A   Clear
1:35 AM 66.2 °F 48.2 °F 52% 29.60 in 10.0 mi SSW 17.3 mph - N/A   Clear
1:55 AM 66.2 °F 48.2 °F 52% 29.60 in 10.0 mi SSW 17.3 mph 21.9 mph N/A   Clear
2:15 AM 68.0 °F 51.8 °F 56% 29.60 in 10.0 mi SSW 23.0 mph 26.5 mph N/A   Clear
2:35 AM 69.8 °F 51.8 °F 53% 29.60 in 10.0 mi SSW 21.9 mph 28.8 mph N/A   Clear
2:55 AM 68.0 °F 51.8 °F 56% 29.61 in 10.0 mi SSW 18.4 mph 27.6 mph N/A   Clear
3:15 AM 66.2 °F 51.8 °F 60% 29.61 in 10.0 mi SSW 17.3 mph - N/A   Clear
3:35 AM 66.2 °F 51.8 °F 60% 29.61 in 10.0 mi South 18.4 mph - N/A   Clear
3:55 AM 68.0 °F 51.8 °F 56% 29.61 in 10.0 mi SSW 23.0 mph 27.6 mph N/A   Clear
4:15 AM 68.0 °F 51.8 °F 56% 29.61 in 10.0 mi South 23.0 mph 28.8 mph N/A   Clear
4:35 AM 66.2 °F 51.8 °F 60% 29.60 in 10.0 mi South 21.9 mph 29.9 mph N/A   Clear
4:55 AM 66.2 °F 51.8 °F 60% 29.61 in 10.0 mi SSW 20.7 mph 26.5 mph N/A   Clear
5:15 AM 64.4 °F 51.8 °F 64% 29.61 in 10.0 mi SSW 18.4 mph - N/A   Clear
5:35 AM 64.4 °F 51.8 °F 64% 29.61 in 10.0 mi SSW 17.3 mph - N/A   Clear
5:55 AM 62.6 °F 51.8 °F 68% 29.62 in 10.0 mi SW 13.8 mph - N/A   Clear
6:15 AM 62.6 °F 51.8 °F 68% 29.63 in 10.0 mi SW 13.8 mph - N/A   Clear
6:35 AM 60.8 °F 51.8 °F 72% 29.64 in 10.0 mi WSW 11.5 mph - N/A   Clear
6:55 AM 59.0 °F 51.8 °F 77% 29.64 in 10.0 mi WSW 9.2 mph - N/A   Partly Cloudy
7:15 AM 57.2 °F 50.0 °F 77% 29.66 in 10.0 mi West 10.4 mph - N/A   Clear
7:35 AM 57.2 °F 48.2 °F 72% 29.66 in 10.0 mi West 11.5 mph - N/A   Clear
7:55 AM 59.0 °F 46.4 °F 63% 29.67 in 10.0 mi West 11.5 mph - N/A   Clear
8:15 AM 60.8 °F 46.4 °F 59% 29.67 in 10.0 mi WNW 8.1 mph - N/A   Clear
8:35 AM 60.8 °F 48.2 °F 63% 29.68 in 10.0 mi NNW 11.5 mph - N/A   Clear
8:55 AM 64.4 °F 53.6 °F 68% 29.69 in 10.0 mi NNW 11.5 mph - N/A   Clear
9:15 AM 66.2 °F 57.2 °F 73% 29.69 in 10.0 mi North 16.1 mph - N/A   Clear
9:35 AM 69.8 °F 57.2 °F 64% 29.69 in 10.0 mi North 23.0 mph 27.6 mph N/A   Clear
9:55 AM 71.6 °F 60.8 °F 69% 29.70 in 10.0 mi North 21.9 mph 25.3 mph N/A   Clear
10:15 AM 73.4 °F 60.8 °F 65% 29.70 in 10.0 mi NNE 19.6 mph 25.3 mph N/A   Clear
10:35 AM 73.4 °F 60.8 °F 65% 29.72 in 10.0 mi North 21.9 mph 26.5 mph N/A   Clear
10:55 AM 75.2 °F 57.2 °F 53% 29.72 in 10.0 mi North 23.0 mph 31.1 mph N/A   Clear
11:15 AM 75.2 °F 57.2 °F 53% 29.73 in 10.0 mi NNE 21.9 mph 29.9 mph N/A   Clear
11:35 AM 77.0 °F 55.4 °F 47% 29.73 in 10.0 mi NNE 20.7 mph 27.6 mph N/A   Clear
11:55 AM 78.8 °F 51.8 °F 39% 29.74 in 10.0 mi NNE 19.6 mph 27.6 mph N/A   Clear
12:15 PM 78.8 °F 51.8 °F 39% 29.75 in 10.0 mi NNE 25.3 mph - N/A   Clear
12:35 PM 80.6 °F 50.0 °F 34% 29.76 in 10.0 mi North 21.9 mph 32.2 mph N/A   Clear
12:55 PM 80.6 °F 48.2 °F 32% 29.76 in 10.0 mi North 17.3 mph 27.6 mph N/A   Clear
1:15 PM 80.6 °F 48.2 °F 32% 29.76 in 10.0 mi NNE 20.7 mph 31.1 mph N/A   Clear
1:35 PM 80.6 °F 48.2 °F 32% 29.76 in 10.0 mi North 21.9 mph 27.6 mph N/A   Clear
1:55 PM 82.4 °F 46.4 °F 28% 29.76 in 10.0 mi NNE 19.6 mph 27.6 mph N/A   Clear
2:15 PM 82.4 °F 46.4 °F 28% 29.77 in 10.0 mi NE 20.7 mph 28.8 mph N/A   Clear
2:35 PM 82.4 °F 46.4 °F 28% 29.78 in 10.0 mi North 17.3 mph 26.5 mph N/A   Clear
2:55 PM 82.4 °F 46.4 °F 28% 29.78 in 10.0 mi NNE 18.4 mph 31.1 mph N/A   Clear
3:15 PM 82.4 °F 46.4 °F 28% 29.79 in 10.0 mi NNE 19.6 mph 26.5 mph N/A   Clear
3:35 PM 82.4 °F 46.4 °F 28% 29.80 in 10.0 mi NNE 16.1 mph 21.9 mph N/A   Clear
3:55 PM 82.4 °F 46.4 °F 28% 29.81 in 10.0 mi NNE 19.6 mph - N/A   Clear
4:15 PM 82.4 °F 46.4 °F 28% 29.81 in 10.0 mi North 23.0 mph 26.5 mph N/A   Clear
4:35 PM 82.4 °F 46.4 °F 28% 29.81 in 10.0 mi NNE 21.9 mph - N/A   Clear
4:55 PM 82.4 °F 46.4 °F 28% 29.82 in 10.0 mi NE 18.4 mph 21.9 mph N/A   Clear
5:15 PM 82.4 °F 46.4 °F 28% 29.82 in 10.0 mi NE 20.7 mph 26.5 mph N/A   Clear
5:35 PM 80.6 °F 44.6 °F 28% 29.84 in 10.0 mi NNE 21.9 mph 31.1 mph N/A   Clear
5:55 PM 78.8 °F 42.8 °F 28% 29.85 in 10.0 mi NE 24.2 mph 31.1 mph N/A   Clear
6:15 PM 78.8 °F 42.8 °F 28% 29.86 in 10.0 mi NNE 23.0 mph 33.4 mph N/A   Clear
6:35 PM 77.0 °F 42.8 °F 29% 29.87 in 10.0 mi NE 21.9 mph 33.4 mph N/A   Clear
6:55 PM 75.2 °F 39.2 °F 27% 29.89 in 10.0 mi NNE 27.6 mph 34.5 mph N/A   Clear
7:15 PM 73.4 °F 39.2 °F 29% 29.90 in 10.0 mi NNE 23.0 mph 33.4 mph N/A   Clear
7:35 PM 73.4 °F 37.4 °F 27% 29.91 in 10.0 mi NNE 23.0 mph 36.8 mph N/A   Clear
7:55 PM 71.6 °F 37.4 °F 29% 29.92 in 10.0 mi NNE 25.3 mph 36.8 mph N/A   Clear
8:15 PM 69.8 °F 35.6 °F 28% 29.94 in 10.0 mi NNE 25.3 mph 35.7 mph N/A   Clear
8:35 PM 66.2 °F 32.0 °F 28% 29.95 in 10.0 mi NNE 29.9 mph 34.5 mph N/A   Clear
8:55 PM 64.4 °F 28.4 °F 26% 29.96 in 10.0 mi NNE 23.0 mph 28.8 mph N/A   Clear
9:15 PM 64.4 °F 28.4 °F 26% 29.97 in 10.0 mi NNE 21.9 mph 28.8 mph N/A   Partly Cloudy
9:35 PM 62.6 °F 30.2 °F 30% 29.98 in 10.0 mi NNE 24.2 mph 32.2 mph N/A   Clear
9:55 PM 62.6 °F 28.4 °F 27% 29.99 in 10.0 mi NNE 21.9 mph 27.6 mph N/A   Clear
10:15 PM 60.8 °F 28.4 °F 29% 30.00 in 10.0 mi NNE 20.7 mph 28.8 mph N/A   Clear
10:35 PM 60.8 °F 26.6 °F 27% 30.02 in 10.0 mi NNE 20.7 mph 26.5 mph N/A   Clear
10:55 PM 60.8 °F 26.6 °F 27% 30.04 in 10.0 mi NNE 17.3 mph - N/A   Clear
11:15 PM 59.0 °F 26.6 °F 29% 30.05 in 10.0 mi NNE 15.0 mph - N/A   Clear
11:35 PM 57.2 °F 26.6 °F 31% 30.04 in 10.0 mi NNE 15.0 mph - N/A   Clear
11:55 PM 57.2 °F 26.6 °F 31% 30.06 in 10.0 mi NNE 17.3 mph - N/A   Clear